Weather History for Everett, WA

Change the Weather History Date:

Friday, February 8, 2013

  Actual Average Record
Temperature  
Mean Temperature 37 °F -  
Max Temperature 42 °F 49 °F 65 °F (1954)
Min Temperature 32 °F 33 °F 17 °F (1989)
Degree Days  
Heating Degree Days 28    
Moisture  
Dew Point 33 °F    
Average Humidity 89    
Maximum Humidity 100    
Minimum Humidity 70    
Precipitation  
Precipitation 0.00 in - - ()
Sea Level Pressure  
Sea Level Pressure 30.25 in    
Wind  
Wind Speed 2 mph (NNE)    
Max Wind Speed 5 mph    
Max Gust Speed -    
Visibility 7 miles    
Events Fog    
Averages and records for this station are not official NWS values.
T = Trace of Precipitation, MM = Missing Value Source: NWS Daily Summary

Daily Weather History Graph

Daily Weather History Graph

Search for Another Location

Airport:

Trip Planner

Search our weather history database for the weather conditions in past years. The results will help you decide how hot, cold, wet, or windy it might be!

Date:

Astronomy

Feb. 08, 2013 Rise Set
Actual Time 7:26 AM PST 5:21 PM PST
Civil Twilight 6:53 AM PST 5:53 PM PST
Nautical Twilight 6:16 AM PST 6:30 PM PST
Astronomical Twilight 5:40 AM PST 7:06 PM PST
Moon 6:02 AM PST (2/8) 3:59 PM PST (2/8)
Length of Visible Light 11h 00m
Length of Day
9h 55m
Waning Crescent, 3% of the Moon is Illuminated
Feb 8
Waning Crescent
Feb 9
New
Feb 17
First Quarter
Feb 25
Full
Mar 4
Last Quarter

Hourly Weather History & Observations

Time (PST) Temp. Windchill Dew Point Humidity Pressure Visibility Wind Dir Wind Speed Gust Speed Precip Events Conditions
12:22 AM 37.4 °F 34.9 °F 35.6 °F 93% 30.19 in 10.0 mi NE 3.5 mph - N/A   Mostly Cloudy
12:40 AM 35.6 °F 32.8 °F 33.8 °F 93% 30.19 in 10.0 mi NNE 3.5 mph - N/A   Scattered Clouds
12:53 AM 36.0 °F 33.3 °F 34.0 °F 93% 30.20 in 10.0 mi North 3.5 mph - N/A   Clear
1:01 AM 35.6 °F 31.7 °F 33.8 °F 93% 30.19 in 10.0 mi NNE 4.6 mph - N/A   Scattered Clouds
1:11 AM 37.4 °F 34.9 °F 35.6 °F 93% 30.19 in 10.0 mi NNE 3.5 mph - N/A   Mostly Cloudy
1:24 AM 35.6 °F 31.7 °F 33.8 °F 93% 30.19 in 10.0 mi NNE 4.6 mph - N/A   Mostly Cloudy
1:48 AM 35.6 °F - 33.8 °F 93% 30.20 in 10.0 mi Calm Calm - N/A   Scattered Clouds
1:53 AM 35.1 °F - 34.0 °F 96% 30.22 in 10.0 mi Calm Calm - N/A   Partly Cloudy
2:53 AM 34.0 °F - 32.0 °F 92% 30.22 in 6.0 mi Calm Calm - N/A   Clear
3:53 AM 34.0 °F - 32.0 °F 92% 30.23 in 9.0 mi Calm Calm - N/A   Clear
4:04 AM 33.8 °F 30.8 °F 32.0 °F 93% 30.22 in 2.0 mi North 3.5 mph - N/A   Partly Cloudy
4:06 AM 33.8 °F 30.8 °F 32.0 °F 93% 30.22 in 1.0 mi NNE 3.5 mph - N/A   Mist
4:12 AM 33.8 °F 30.8 °F 32.0 °F 93% 30.22 in 0.2 mi North 3.5 mph - N/A Fog Fog
4:21 AM 33.8 °F - 33.8 °F 100% 30.22 in 0.5 mi Calm Calm - N/A Fog Fog
4:25 AM 33.8 °F - 33.8 °F 100% 30.23 in 0.5 mi Calm Calm - N/A Fog Fog
4:37 AM 33.8 °F - 33.8 °F 100% 30.23 in 0.5 mi Calm Calm - N/A Fog Fog
4:43 AM 33.8 °F - 33.8 °F 100% 30.23 in 1.0 mi Calm Calm - N/A   Mist
4:50 AM 33.8 °F - 32.0 °F 93% 30.23 in 1.0 mi Calm Calm - N/A   Mist
4:53 AM 33.1 °F 30.0 °F 32.0 °F 96% 30.25 in 1.2 mi NNE 3.5 mph - N/A   Scattered Clouds
4:58 AM 33.8 °F 30.8 °F 32.0 °F 93% 30.23 in 3.0 mi NNE 3.5 mph - N/A   Partly Cloudy
5:53 AM 34.0 °F 31.0 °F 32.0 °F 92% 30.25 in 10.0 mi ENE 3.5 mph - N/A   Scattered Clouds
6:53 AM 32.0 °F - 30.0 °F 92% 30.26 in 10.0 mi Calm Calm - N/A   Clear
7:26 AM 33.8 °F - 30.2 °F 87% 30.25 in 3.0 mi Calm Calm - N/A Fog Patches of Fog
7:28 AM 33.8 °F - 32.0 °F 93% 30.25 in 1.5 mi Calm Calm - N/A Fog Patches of Fog
7:36 AM 33.8 °F 30.8 °F 32.0 °F 93% 30.26 in 0.2 mi North 3.5 mph - N/A Fog Patches of Fog
7:38 AM 33.8 °F - 32.0 °F 93% 30.26 in 0.2 mi Calm Calm - N/A Fog Patches of Fog
7:46 AM 33.8 °F 30.8 °F 32.0 °F 93% 30.26 in 10.0 mi NNE 3.5 mph - N/A Fog Patches of Fog
7:53 AM 33.1 °F - 32.0 °F 96% 30.28 in 7.0 mi Calm Calm - N/A Fog Patches of Fog
7:55 AM 33.8 °F - 32.0 °F 93% 30.26 in 0.2 mi Calm Calm - N/A Fog Patches of Fog
7:58 AM 33.8 °F - 32.0 °F 93% 30.26 in 0.2 mi Calm Calm - N/A Fog Patches of Fog
8:05 AM 33.8 °F 29.6 °F 32.0 °F 93% 30.26 in 1.5 mi NNE 4.6 mph - N/A Fog Patches of Fog
8:09 AM 33.8 °F 30.8 °F 32.0 °F 93% 30.27 in 8.0 mi NNE 3.5 mph - N/A Fog Patches of Fog
8:53 AM 35.6 °F - 33.8 °F 93% 30.27 in 10.0 mi Calm Calm - N/A   Overcast
9:53 AM 39.0 °F 35.7 °F 35.1 °F 86% 30.30 in 10.0 mi NNE 4.6 mph - N/A   Overcast
10:30 AM 37.4 °F - 35.6 °F 93% 30.29 in 10.0 mi Calm Calm - N/A   Mostly Cloudy
10:53 AM 39.0 °F - 35.1 °F 86% 30.31 in 10.0 mi Calm Calm - N/A   Mostly Cloudy
10:56 AM 39.2 °F 37.0 °F 35.6 °F 87% 30.29 in 10.0 mi North 3.5 mph - N/A   Overcast
11:53 AM 42.1 °F 40.2 °F 35.1 °F 76% 30.30 in 10.0 mi North 3.5 mph - N/A   Overcast
12:00 PM 42.8 °F 40.1 °F 35.6 °F 76% 30.28 in 10.0 mi NNE 4.6 mph - N/A   Mostly Cloudy
12:53 PM 41.0 °F 38.0 °F 35.1 °F 79% 30.29 in 10.0 mi North 4.6 mph - N/A   Mostly Cloudy
1:53 PM 42.1 °F 39.2 °F 35.1 °F 76% 30.29 in 10.0 mi NNE 4.6 mph - N/A   Overcast
2:53 PM 42.1 °F 40.2 °F 33.1 °F 70% 30.29 in 10.0 mi North 3.5 mph - N/A   Mostly Cloudy
3:53 PM 41.0 °F 39.0 °F 33.1 °F 73% 30.30 in 10.0 mi North 3.5 mph - N/A   Overcast
4:53 PM 41.0 °F - 34.0 °F 76% 30.29 in 10.0 mi Calm Calm - N/A   Overcast
5:53 PM 39.9 °F - 34.0 °F 79% 30.29 in 10.0 mi Calm Calm - N/A   Overcast
6:53 PM 39.9 °F - 34.0 °F 79% 30.28 in 10.0 mi Calm Calm - N/A   Overcast
7:53 PM 39.9 °F - 35.1 °F 83% 30.29 in 10.0 mi Calm Calm - N/A   Overcast
8:53 PM 39.9 °F - 35.1 °F 83% 30.29 in 10.0 mi Calm Calm - N/A   Overcast
9:53 PM 39.9 °F - 35.1 °F 83% 30.29 in 10.0 mi Calm Calm - N/A   Overcast
10:53 PM 39.9 °F - 35.1 °F 83% 30.28 in 10.0 mi Calm Calm - N/A   Overcast
11:53 PM 39.9 °F - 35.1 °F 83% 30.28 in 10.0 mi Calm Calm - N/A   Overcast